Location: Arzembouy
(47.2454°N, 3.3675°E)
Time: 06:25:43
(UTC+00:00)

Daily predictions for brighter satellites

Satellite Brightness Start Highest point End
(mag) Time Altitude Azimuth Time Altitude Azimuth Time Altitude Azimuth
Cosmos 1190 Rocket 4.0 19:22:04 10° SSW 19:27:19 72° ESE 19:32:38 10° NNE
Cosmos 1140 Rocket 3.5 19:23:55 10° SSW 19:29:08 71° ESE 19:34:23 10° NNE
FALCON 9 DEB 3.9 19:26:09 10° WSW 19:29:36 56° NNW 19:33:03 10° ENE
Cosmos 1023 Rocket 4.5 19:25:19 10° SSW 19:30:35 75° ESE 19:35:51 10° NNE
Resurs 1-3 4.0 19:27:22 10° SE 19:31:32 46° ENE 19:35:45 10° N
OBJECT-B 1.3 19:30:57 10° SSE 19:34:06 44° ENE 19:37:16 10° N
Cosmos 1441 Rocket 3.5 19:30:43 10° SSW 19:34:28 70° WNW 19:38:12 10° N
IRIDIUM 106 4.3 19:29:42 10° S 19:34:54 82° E 19:40:10 10° N
Cosmos 1633 Rocket 3.4 19:32:58 10° SSE 19:37:12 47° E 19:41:26 10° NNE
Cosmos 1184 Rocket 3.6 19:35:04 10° SSE 19:38:02 32° E 19:41:01 10° NNE
SL-08 RB Rocket 4.2 19:34:46 10° S 19:39:22 66° WSW 19:44:03 10° NNW
Cosmos 921 Rocket 3.4 19:36:50 10° N 19:40:53 44° ENE 19:44:53 10° SE
Cosmos 2123 Rocket 4.1 19:36:07 10° N 19:42:17 59° ENE 19:48:27 10° SSE
Cosmos 2239 Rocket 4.5 19:37:00 10° S 19:43:06 77° E 19:49:17 10° NNE
Meteor 1-27 Rocket 4.0 19:41:38 10° NNW 19:47:37 83° W 19:53:33 10° S
Cosmos 1605 Rocket 4.4 19:46:29 10° SSE 19:52:09 41° E 19:57:49 10° NNE
Okean 1 4.5 19:49:49 10° NNE 19:53:18 27° ENE 19:56:08 13° SE
ARGOS 4.5 19:48:25 10° SSW 19:53:28 41° W 19:58:32 10° NNW
Cosmos 1707 Rocket 3.8 19:49:18 10° NNW 19:53:38 71° W 19:57:56 10° S
CZ-2C R/B 2.6 19:49:18 10° NNE 19:54:31 90° NNE 19:59:47 10° SSW
NOSS 3-2 (A) 3.3 19:50:01 10° SSW 19:55:40 71° SE 20:02:09 10° NE
Cosmos 192 4.4 19:51:21 10° NNW 19:56:17 88° WSW 20:01:12 10° SSE
Cosmos 2219 Rocket 4.4 19:55:07 10° N 19:57:22 12° NNE 19:59:37 10° NE
USA 267 4.1 19:53:16 10° ENE 19:58:35 26° SE 20:03:52 10° S
SL-16 R/B 2.8 19:56:31 10° NNW 20:01:59 45° NE 20:06:28 15° ESE
SL-4 R/B 2.8 19:58:31 10° W 20:02:27 48° NNW 20:06:06 10° ENE
BREEZE-M DEB (TANK) 2.4 20:00:59 10° W 20:03:29 70° N 20:09:13 10° ENE
BREEZE-M DEB (TANK) 4.3 20:00:19 10° W 20:03:45 16° WSW 20:05:53 10° SSW
SL-27 R/B 3.7 20:04:28 17° SE 20:05:29 20° E 20:07:59 10° NE
Cosmos 2242 Rocket 4.2 20:01:52 10° N 20:06:01 38° ENE 20:09:08 16° SE
NOSS 3-2 (C) 3.5 20:00:54 10° SSW 20:06:23 53° ESE 20:12:39 10° NE
Cosmos 1470 Rocket 3.7 20:02:43 10° S 20:06:59 54° E 20:11:16 10° NNE
Sich 1 4.2 20:03:35 10° SSW 20:07:51 47° WNW 20:12:11 10° N
Cosmos 2082 Rocket 2.7 20:05:24 10° SW 20:11:03 64° WNW 20:16:42 10° NNE
BREEZE-M DEB (TANK) 2.4 20:08:08 10° W 20:11:06 52° N 20:12:31 16° ENE
USA 186 4.4 20:11:56 10° WSW 20:12:26 10° W 20:12:57 10° W
Meteor 2-20 Rocket 4.5 20:08:48 10° N 20:15:01 89° E 20:21:10 10° S
Meteor 1-4 Rocket 3.6 20:14:20 10° NNW 20:17:37 41° W 20:20:53 10° SSW
ERS-1 Rocket 4.1 20:16:14 17° ESE 20:19:07 28° ENE 20:23:21 10° N
Cosmos 2322 Rocket 2.6 20:13:48 10° NNW 20:19:21 49° ENE 20:23:14 19° SE
Cosmos 1862 Rocket 3.7 20:17:00 10° NNW 20:21:26 74° W 20:25:50 10° S
Cosmos 1850 Rocket 4.1 20:18:30 10° S 20:23:38 53° ESE 20:28:45 10° NNE
Meteor 1-25 Rocket 4.1 20:19:58 10° S 20:25:32 77° E 20:31:12 10° NNE
Cosmos 841 Rocket 4.1 20:21:55 10° N 20:26:54 41° ENE 20:29:56 21° ESE
SPOT 1/Viking Rocket 4.0 20:23:32 20° SE 20:26:56 47° ENE 20:31:56 10° N
USA 32 4.0 20:23:02 10° S 20:28:15 81° E 20:33:31 10° N
Cosmos 2360 Rocket 3.2 20:23:13 10° NNW 20:28:23 34° NE 20:31:48 19° ESE
USA 276 2.0 20:25:38 10° WNW 20:28:49 89° SSW 20:30:10 31° ESE
X-37B 1.2 20:26:28 10° W 20:29:27 39° SSW 20:30:22 31° SSE
Meteor 1-18 Rocket 4.2 20:24:11 10° N 20:29:45 69° ENE 20:33:52 18° SSE
Terra 3.3 20:27:56 17° E 20:30:02 22° ENE 20:33:40 10° NNE
ATLAS 3B R/B 3.2 20:25:56 10° S 20:31:37 32° ESE 20:37:21 10° NE
IGS 5A 3.6 20:29:39 23° SE 20:32:02 58° ENE 20:36:09 10° N
Cosmos 1238 Rocket 1.9 20:30:32 18° S 20:32:35 84° E 20:35:38 10° N
USA 234 3.9 20:29:00 11° E 20:35:03 50° NNE 20:41:19 10° NW
Cosmos 468 Rocket 4.0 20:30:39 10° NNW 20:35:59 84° WSW 20:39:42 20° SSE
CZ-2C R/B 4.3 20:31:34 10° N 20:36:06 60° WNW 20:40:29 10° SSW
Cosmos 1980 Rocket 3.6 20:32:07 10° NW 20:37:11 35° WSW 20:42:13 10° S
Cosmos 44 3.4 20:32:46 10° NW 20:37:42 73° NE 20:40:36 26° SE
Lacrosse 5 2.2 20:33:57 10° WNW 20:38:57 59° SW 20:41:50 24° SSE
Resurs 01 Rocket 2.2 20:34:56 11° S 20:39:02 56° W 20:43:25 10° NNW
Iridium 4 Rocket 4.4 20:38:44 20° E 20:39:14 21° E 20:42:21 10° NNE
Cosmos 1447 Rocket 4.5 20:34:14 10° N 20:40:36 79° E 20:45:25 18° SSE
Cosmos 1602 3.6 20:37:45 14° S 20:41:02 82° E 20:45:01 10° N
CARTOSAT-1 4.3 20:40:31 27° ESE 20:42:11 38° ENE 20:46:12 10° N
Cosmos 1153 Rocket 4.5 20:36:52 12° S 20:42:34 65° E 20:48:42 10° NNE
GP-B 3.3 20:40:12 10° N 20:44:40 75° W 20:48:37 13° S
Cosmos 1933 Rocket 3.6 20:43:06 10° S 20:47:31 82° W 20:52:01 10° N
Cosmos 405 Rocket 3.2 20:50:16 10° SSW 20:53:55 58° WNW 20:57:40 10° N
Spot 2 Rocket 3.5 20:51:17 24° SSE 20:54:26 87° WSW 20:59:34 10° NNW
COSMOS 2428 4.4 20:50:08 10° N 20:54:35 22° NE 20:57:48 15° E
Cosmos 1814 Rocket 4.2 20:49:29 10° NNW 20:54:39 56° ENE 20:56:56 32° SE
USA 238 DEB 4.3 20:49:48 10° WSW 20:56:22 60° NW 21:03:15 10° NE
USA 238 4.2 20:49:54 10° WSW 20:56:27 60° NW 21:03:21 10° NE
Cosmos 1515 3.6 20:54:21 10° N 20:58:12 84° W 20:59:36 38° S
Cosmos 1869 Rocket 3.7 20:57:44 36° SSE 20:59:12 53° E 21:03:34 10° NNE
CENTAUR R/B 2.6 20:53:28 10° SW 20:59:27 81° NW 21:06:38 10° NE
Okean 1-7 2.9 20:55:44 10° N 21:00:04 90° WNW 21:01:51 35° S
Cosmos 1741 Rocket 4.1 20:57:17 10° SSW 21:02:33 79° WNW 21:07:52 10° NNE
Cosmos 1437 Rocket 3.0 21:02:11 10° NNW 21:05:56 62° W 21:07:19 35° SSW
OBJECT-B 3.8 21:05:29 10° WSW 21:06:43 12° W 21:07:57 10° WNW
Cosmos 1763 Rocket 4.2 21:05:03 10° NNW 21:10:12 50° WSW 21:13:13 23° S
Cosmos 1703 Rocket 3.8 21:06:03 10° NNW 21:10:22 63° W 21:12:20 30° SSW
H-2A R/B 4.1 21:06:50 10° N 21:10:52 54° WNW 21:14:45 11° SSW
Cosmos 1570 Rocket 4.0 21:07:22 10° NNW 21:12:44 85° WSW 21:14:58 37° SSE
Cosmos 2333 Rocket 3.3 21:07:42 10° NNW 21:12:54 33° NE 21:15:19 24° E
ATLAS 5 CENTAUR R/B 2.7 21:10:37 10° NNW 21:13:13 42° NE 21:14:58 29° E
Cosmos 2084 Rocket 4.1 21:09:32 10° WSW 21:13:40 55° NW 21:17:55 10° NE
Landsat 7 4.4 21:15:20 25° SSW 21:17:54 52° W 21:22:34 10° NNW
SWARM C 4.4 21:15:14 10° N 21:18:35 83° W 21:18:41 80° SW
SWARM A 4.2 21:15:20 10° N 21:18:41 74° W 21:18:54 70° SW
SPOT 5 2.5 21:17:39 50° SE 21:18:41 75° ENE 21:23:09 10° N
NOSS 5 (C) 4.5 21:16:12 10° SW 21:20:34 84° SE 21:23:53 10° NE
Meteor 1-5 Rocket 4.3 21:18:35 31° S 21:21:31 71° E 21:27:23 10° NNE
Cosmos 2208 Rocket 3.9 21:18:58 10° NNW 21:24:15 82° WSW 21:25:57 43° SSE
Cosmos 1733 Rocket 3.9 21:29:41 35° ENE 21:29:41 35° ENE 21:33:19 10° NNE
ERBS 4.2 21:26:44 10° NW 21:29:26 23° NNE 21:30:13 21° NE
Meteor 1-11 Rocket 3.8 21:31:46 45° SSE 21:33:15 60° E 21:38:58 10° NNE
Lacrosse 4 Rocket 2.0 21:37:37 43° ENE 21:37:37 43° ENE 21:40:42 10° NE
Cosmos 968 Rocket 4.5 21:37:25 30° E 21:37:25 30° E 21:41:05 10° NE
Tsikada Rocket 4.3 21:30:49 10° N 21:37:02 54° ENE 21:38:46 42° SE
SL-27 R/B 4.5 21:37:55 12° WSW 21:40:26 26° WNW 21:43:18 10° N
Cosmos 2100 Rocket 4.0 21:36:57 26° SSW 21:40:37 76° W 21:46:48 10° N
GENESIS II 4.4 21:37:18 10° NNW 21:41:16 62° NE 21:41:16 62° NE
USA 267 3.1 21:35:38 10° NE 21:42:13 83° SE 21:48:46 10° SW
Meteor 2-4 Rocket 4.1 21:36:58 10° NNW 21:42:25 55° W 21:44:39 33° SSW
SL-4 R/B 2.6 21:38:47 10° WNW 21:42:30 45° N 21:42:58 42° NE
Cosmos 2219 Rocket 2.8 21:37:23 10° NNW 21:42:52 46° NE 21:44:23 38° E
Cosmos 540 Rocket 4.0 21:37:54 10° NNW 21:42:55 50° WSW 21:44:28 37° SSW
Cosmos 2173 Rocket 4.0 21:41:11 28° SSW 21:44:35 76° W 21:50:44 10° N
SL-16 R/B 3.4 21:40:55 10° NW 21:45:56 33° WSW 21:48:19 24° SSW
Cosmos 1242 Rocket 3.3 21:48:01 10° N 21:50:53 48° NNE 21:50:53 48° NNE
SAR-Lupe-2 4.2 21:50:30 10° N 21:54:00 51° WNW 21:54:04 51° WNW
Meteor 1-23 Rocket 4.3 21:50:20 10° N 21:56:10 70° ENE 21:57:14 56° SE
Cosmos 2322 3.6 21:50:39 10° NNW 21:56:22 78° ENE 21:57:25 59° SE
Cosmos 1725 Rocket 3.9 21:55:17 48° S 21:57:09 78° E 22:03:30 10° N
Cosmos 1459 Rocket 4.4 21:53:46 25° SSW 21:57:31 63° WNW 22:03:52 10° N
ERS-1 Rocket 3.8 21:56:14 34° SW 21:57:44 43° W 22:02:32 10° NNW
Cosmos 1833 4.1 21:58:11 42° SSW 22:00:13 89° WNW 22:05:56 10° NNE
SL-08 R/B 4.3 21:59:40 51° S 22:01:22 85° E 22:07:30 10° N
Cosmos 836 Rocket 4.5 21:56:29 10° NNW 22:01:41 64° ENE 22:02:12 60° E
Cosmos 2346 Rocket 4.4 21:55:45 10° NNW 22:01:48 76° W 22:03:31 49° SSW
Meteor 1-13 Rocket 4.4 21:56:32 10° NNW 22:01:59 62° W 22:03:24 46° SSW
Cosmos 1536 3.1 22:03:04 64° N 22:03:04 64° N 22:06:30 10° N
Cosmos 2322 Rocket 3.6 21:58:16 10° NW 22:03:08 30° WSW 22:05:04 24° SW
Cosmos 2016 Rocket 4.1 22:02:20 40° SSW 22:04:49 79° W 22:11:15 10° N
Cosmos 1378 Rocket 4.0 22:00:54 10° N 22:04:52 52° NE 22:04:52 52° NE
Cosmos 2221 Rocket 3.9 22:00:52 10° NNW 22:05:17 57° W 22:05:37 55° WSW
Terra 2.3 22:06:49 48° SW 22:07:27 52° W 22:12:07 10° NNW
Okean 3 4.4 22:04:13 10° NNW 22:08:16 41° W 22:08:38 40° WSW
COSMOS 2487 4.0 22:12:29 34° N 22:12:29 34° N 22:14:38 10° NNE
Cosmos 2333 4.1 22:05:27 10° NNW 22:11:16 83° WSW 22:12:06 66° S
Cosmos 1666 3.5 22:12:27 47° NW 22:12:27 47° NW 22:15:42 10° N
Cosmos 2360 Rocket 2.8 22:07:09 10° NW 22:12:31 45° WSW 22:13:33 41° SW
SL-16 R/B 4.5 22:10:42 10° N 22:14:12 16° NE 22:17:40 10° ENE
USA 234 3.2 22:16:21 55° SSE 22:17:52 76° SW 22:24:27 10° NW
Iridium 4 Rocket 4.1 22:18:30 34° W 22:19:00 35° W 22:22:51 10° NNW
Lacrosse 5 4.2 22:19:35 10° WSW 22:20:57 11° WSW 22:21:01 11° WSW
ATLAS 3B R/B 3.0 22:15:23 10° SW 22:21:55 63° NW 22:28:32 10° NE
Cosmos 1378 4.3 22:18:43 10° N 22:21:16 41° N 22:21:16 41° N
MOS 1-B Rocket 3.7 22:17:06 10° NNE 22:22:44 72° ESE 22:23:10 69° SE
Cosmos 1975 Rocket 4.4 22:23:54 10° N 22:27:17 31° NE 22:27:17 31° NE
Cosmos 2297 Rocket 4.0 22:32:11 18° ENE 22:32:11 18° ENE 22:34:35 10° NE
Cosmos 1743 4.0 22:35:20 38° NNE 22:35:20 38° NNE 22:37:50 10° N
Cosmos 2233 Rocket 3.9 22:34:08 62° SSW 22:35:19 85° W 22:41:41 10° N
Thor Agena Rocket 3.8 22:30:38 10° NNE 22:35:03 55° ENE 22:35:03 55° ENE
Cosmos 1980 4.3 22:30:42 10° NNW 22:36:10 46° NE 22:36:58 43° E
COSMOS 2428 2.6 22:33:48 10° NNW 22:39:34 81° WSW 22:39:48 78° SSW
Cosmos 44 Rocket 3.6 22:38:31 10° NW 22:42:56 63° W 22:42:56 63° W
Cosmos 2237 Rocket 2.7 22:38:28 10° NNW 22:43:57 48° NE 22:44:34 46° ENE
Cosmos 1271 Rocket 4.1 22:42:04 10° NNW 22:44:31 37° NNW 22:44:31 37° NNW
Cosmos 1464 Rocket 4.4 22:46:12 47° E 22:46:16 47° E 22:52:09 10° NNE
NOSS 0 Rocket 3.8 22:44:56 10° NNW 22:51:13 79° ENE 22:51:50 71° ESE
Cosmos 2333 Rocket 2.7 22:51:50 10° NW 22:57:19 49° WSW 22:57:19 49° WSW
Geosat 4.0 22:58:12 76° NW 22:58:12 76° NW 23:02:51 10° NNW
Cosmos 1503 Rocket 4.0 22:58:15 80° NW 22:58:15 80° NW 23:03:30 10° NNE
Meteor 2-11 Rocket 4.5 23:06:27 63° WSW 23:07:07 69° WNW 23:13:14 10° N
Cosmos 1513 Rocket 4.5 23:07:07 70° ESE 23:07:26 71° E 23:13:50 10° NNE
DNEPR-1 R/B 4.3 23:08:52 10° NW 23:14:42 63° NE 23:14:42 63° NE
Lacrosse 4 Rocket 3.7 23:13:52 17° WNW 23:15:33 21° NW 23:18:49 10° N
ALOS 2 3.4 23:17:00 48° NNW 23:17:00 48° NNW 23:20:14 10° NNW
Helios 1A 4.4 23:18:09 34° NE 23:18:09 34° NE 23:21:06 10° N
Cosmos 773 Rocket 4.2 23:13:09 10° NNW 23:17:38 68° NNW 23:17:38 68° NNW
Cosmos 2034 Rocket 4.1 23:19:27 61° E 23:19:32 61° E 23:25:47 10° NNE
Cosmos 1072 Rocket 4.3 23:20:38 86° SSW 23:20:47 90° WSW 23:26:57 10° N
Cosmos 2227 Rocket 3.1 23:22:00 38° ENE 23:22:00 38° ENE 23:26:09 10° NE
Cosmos 1891 Rocket 4.4 23:21:57 80° S 23:22:22 90° WNW 23:28:47 10° N
USA 267 4.1 23:18:46 10° NE 23:24:59 48° NNW 23:31:11 10° W
Cosmos 2219 Rocket 3.4 23:21:39 10° NW 23:26:05 31° W 23:26:05 31° W
Cosmos 1538 Rocket 4.2 23:31:05 10° NNW 23:35:35 66° N 23:35:35 66° N
Cosmos 1607 4.0 23:40:16 10° NW 23:46:45 77° NE 23:47:26 70° ESE
Helios 1B rocket 4.4 23:52:20 10° NE 23:54:18 22° NE 23:54:18 22° NE
